Regional Weather Roundup
Issued by NWS

Home | Current Version | Previous Version | Graphics & Text | Print | Product List | Glossary On
Versions: 1 2 3 4 5 6 7 8 9 10 11 12 13 14 15 16 17 18 19 20 21 22 23 24 25 26 27 28 29 30 31 32 33 34 35 36 37 38 39 40 41 42 43 44 45 46 47 48 49 50
000
ASUS43 KLMK 292202
RWRKY
KENTUCKY REGIONAL WEATHER ROUNDUP
NATIONAL WEATHER SERVICE LOUISVILLE KY
600 PM EDT MON JUN 29 2015

NOTE "FAIR" INDICATES FEW OR NO CLOUDS BELOW 12,000 FEET
WITH NO SIGNIFICANT WEATHER AND/OR OBSTRUCTIONS TO VISIBILITY.

KYZ001>023-026-027-061>063-070>075-292300-
WESTERN AND SOUTH CENTRAL KENTUCKY

CITY           SKY/WX    TMP DP  RH WIND       PRES   REMARKS
PADUCAH        SUNNY     87  66  49 NW10      29.83F
HENDERSON      MOSUNNY   82  64  54 NW13      29.82S
OWENSBORO      MOSUNNY   84  68  58 NW13      29.82S
HOPKINSVILLE   DRIZZLE   76  71  84 W14       29.86R
BOWLING GREEN  MOSUNNY   81  66  60 NW7       29.83R
GLASGOW        NOT AVBL
$$

KYZ024-025-028>034-038-045-046-053-292300-
NORTH CENTRAL KENTUCKY

CITY           SKY/WX    TMP DP  RH WIND       PRES   REMARKS
LOUISVILLE/SDF MOSUNNY   84  64  50 W17       29.78R
LOUISVILLE/LOU MOSUNNY   83  64  52 W17G24    29.79R
FORT KNOX      MOSUNNY   82  67  60 W10       29.79R
$$

KYZ035>037-039>044-047>052-055>060-089>105-292300-
NORTHEAST KENTUCKY

CITY           SKY/WX    TMP DP  RH WIND       PRES   REMARKS
LEXINGTON      CLOUDY    71  66  84 S8        29.83S
COVINGTON      PTSUNNY   75  65  70 NW12      29.79R
FRANKFORT      MOSUNNY   76  67  73 SE8       29.80S
$$

KYZ054-064>069-076>088-106>120-292300-
SOUTHEAST KENTUCKY

CITY           SKY/WX    TMP DP  RH WIND       PRES   REMARKS
JACKSON        PTSUNNY   74  64  71 MISG      29.88R
LONDON         RAIN      74  65  73 NW12      29.88R
SOMERSET       NOT AVBL
MIDDLESBORO    PTSUNNY   81  65  57 S9        29.89R
MONTICELLO     MOCLDY    78  69  73 SW7       29.88R
$$



USA.gov is the U.S. government's official web portal to all federal, state and local government web resources and services.